STARLINK AY

Last updated on Jan. 16, 2020, 12:02 a.m. UTC

1 44960U 20001AY  20015.58334491  .00115663  00000-0  53152-3 0  9992
2 44960  53.0003 354.7459 0000964 100.2004 330.8127 15.82813113  1355

Satellite is not in orbit.